Hourly Data Report for September 11, 2017

All times are specified in Local Standard Time (LST). Add 1 hour to adjust for Daylight Saving Time where and when it is observed.

BATHURST A
NEW BRUNSWICK

47°37'47.000" N
65°44'20.000" W
58.80 m
8100505
71574
ZBF

Download Data

Hourly Data (September 2017)
Hourly Data Report for September 11, 2017
Temp Definition
°C
Dew Point Temp Definition
°C
Rel Hum Definition
%
Wind Dir Definition
10's deg

Wind Spd Definition
km/h
Visibility Definition
km
Stn Press Definition
kPa
Hmdx Definition


Wind Chill Definition


Weather Definition


TIME
00:00 Legend Double Dagger 14.1 8.9 71 31 8 24.1 101.24     LegendNANA
01:00 Legend Double Dagger 14.1 9.3 73 29 11 24.1 101.17     LegendNANA
02:00 Legend Double Dagger 14.7 9.4 71 30 12 24.1 101.12     Mostly Cloudy
03:00 Legend Double Dagger 14.5 9.3 71 30 11 24.1 101.11     LegendNANA
04:00 Legend Double Dagger 13.1 9.2 77 30 10 24.1 101.14     LegendNANA
05:00 Legend Double Dagger 12.6 9.2 79 29 13 24.1 101.15     Mainly Clear
06:00 Legend Double Dagger 11.7 9.0 84 29 7 24.1 101.22     LegendNANA
07:00 Legend Double Dagger 12.6 9.4 81 31 9 24.1 101.24     LegendNANA
08:00 Legend Double Dagger 15.2 10.7 74 32 7 24.1 101.27     Clear
09:00 Legend Double Dagger 16.7 10.0 64 34 13 24.1 101.26     LegendNANA
10:00 Legend Double Dagger 18.0 10.2 60 1 13 24.1 101.25     LegendNANA
11:00 Legend Double Dagger 18.4 10.7 60 4 13 24.1 101.28     Clear
12:00 Legend Double Dagger 19.1 10.4 57 3 12 24.1 101.22     LegendNANA
13:00 Legend Double Dagger 20.3 9.9 51 32 13 24.1 101.12     LegendNANA
14:00 Legend Double Dagger 21.4 9.8 47 2 9 24.1 101.04     Clear
15:00 Legend Double Dagger 21.7 10.0 47 1 10 24.1 100.97     LegendNANA
16:00 Legend Double Dagger 21.7 10.9 50 6 9 24.1 100.88     LegendNANA
17:00 Legend Double Dagger 21.2 11.5 54 7 4 24.1 100.86     Clear
18:00 Legend Double Dagger 19.6 12.2 62 7 4 24.1 100.85     LegendNANA
19:00 Legend Double Dagger 16.1 11.6 75 36 4 24.1 100.88     LegendNANA
20:00 Legend Double Dagger 12.7 11.4 92 36 2 24.1 100.88     Clear
21:00 Legend Double Dagger 12.0 11.1 94 36 2 24.1 100.88     LegendNANA
22:00 Legend Double Dagger 10.0 9.4 96 25 8 24.1 100.90     LegendNANA
23:00 Legend Double Dagger 9.4 8.9 96 24 7 24.1 100.88     Clear

Notes on Data Quality.

Legend

  • E = Estimated
  • M = Missing
  • NA = Not Available
  • ‡ = Partner data that is not subject to review by the National Climate Archives
Date modified: